KG4K-13 Weather Reports


time (UTC)temp
C
wind
direction
speed
KPH
gust
KPH
rain 1hr
cm
rain 24hr
cm
rain mn
cm
humidity
%
barometer
mb
20260505040517 16 195 0.0 1.6 0.00 0.00 0.00 84 1011.7
20260505035518 16 216 0.0 1.6 0.00 0.00 0.00 83 1011.6
20260505034518 16 248 0.0 3.2 0.00 0.00 0.00 83 1011.6
20260505033518 16 232 0.0 3.2 0.00 0.00 0.00 82 1011.6
20260505032535 16 229 0.0 3.2 0.00 0.00 0.00 80 1011.6
20260505031516 16 230 1.6 6.4 0.00 0.00 0.00 79 1011.6
20260505030516 17 226 1.6 4.8 0.00 0.00 0.00 78 1011.7
20260505025516 17 221 1.6 6.4 0.00 0.00 0.00 77 1011.7
20260505024516 17 212 3.2 9.7 0.00 0.00 0.00 77 1011.6
20260505023536 17 200 1.6 11.3 0.00 0.00 0.00 76 1011.6
20260505022516 17 225 1.6 6.4 0.00 0.00 0.00 76 1011.7
20260505021517 17 226 1.6 6.4 0.00 0.00 0.00 75 1011.6
20260505020517 17 219 3.2 9.7 0.00 0.00 0.00 75 1011.4
20260505015517 17 218 1.6 9.7 0.00 0.00 0.00 73 1011.6
20260505014517 17 227 1.6 9.7 0.00 0.00 0.00 72 1011.6
20260505013558 17 210 1.6 8.0 0.00 0.00 0.00 73 1011.5
20260505012517 17 196 3.2 11.3 0.00 0.00 0.00 71 1011.5
20260505011518 17 265 1.6 6.4 0.00 0.00 0.00 69 1011.2
20260505010517 17 211 1.6 4.8 0.00 0.00 0.00 68 1011.0
20260505005518 17 213 3.2 8.0 0.00 0.00 0.00 67 1010.9
20260505004518 17 207 3.2 8.0 0.00 0.00 0.00 67 1011.0
20260505003555 17 237 3.2 9.7 0.00 0.00 0.00 69 1011.0
20260505002535 17 208 1.6 8.0 0.00 0.00 0.00 69 1010.9
20260505001515 17 216 1.6 11.3 0.00 0.00 0.00 68 1011.0
20260505000516 17 242 1.6 4.8 0.00 0.00 0.00 69 1011.0
20260504235516 18 206 1.6 6.4 0.00 0.00 0.00 69 1011.0
20260504234516 18 187 3.2 6.4 0.00 0.00 0.00 67 1011.0
20260504233516 18 202 3.2 8.0 0.00 0.00 0.00 64 1010.9
20260504232517 19 222 3.2 8.0 0.00 0.00 0.00 64 1010.9
20260504231517 20 196 3.2 9.7 0.00 0.00 0.00 63 1010.9
20260504230516 20 224 1.6 6.4 0.00 0.00 0.00 64 1010.8
20260504225517 20 209 1.6 9.7 0.00 0.00 0.00 62 1010.8
20260504224517 20 236 1.6 6.4 0.00 0.00 0.00 59 1010.9
20260504223517 21 216 1.6 8.0 0.00 0.00 0.00 57 1010.9
20260504222558 21 202 1.6 6.4 0.00 0.00 0.00 56 1010.9
20260504221538 21 224 3.2 12.9 0.00 0.00 0.00 55 1010.8
20260504220518 21 199 3.2 9.7 0.00 0.00 0.00 55 1010.8
20260504215517 21 206 1.6 4.8 0.00 0.00 0.00 57 1010.8
20260504214518 21 226 1.6 9.7 0.00 0.00 0.00 60 1010.9
20260504213515 20 209 3.2 9.7 0.00 0.00 0.00 59 1011.0
20260504212515 20 220 1.6 8.0 0.00 0.00 0.00 61 1011.0
20260504211516 20 245 1.6 6.4 0.00 0.00 0.00 61 1011.0
20260504210536 20 208 1.6 8.0 0.00 0.00 0.00 60 1011.0
20260504205535 21 210 1.6 11.3 0.00 0.00 0.00 57 1011.1
20260504204516 21 213 1.6 6.4 0.00 0.00 0.00 54 1011.0
20260504203516 22 39 1.6 6.4 0.00 0.00 0.00 53 1011.1
20260504202537 22 212 1.6 6.4 0.00 0.00 0.00 51 1011.3
20260504201516 22 213 1.6 11.3 0.00 0.00 0.00 51 1011.3
20260504200537 24 228 1.6 4.8 0.00 0.00 0.00 50 1011.5
20260504195536 24 210 1.6 4.8 0.00 0.00 0.00 46 1011.6
20260504194517 23 24 1.6 8.0 0.00 0.00 0.00 46 1011.7
20260504193517 23 183 1.6 9.7 0.00 0.00 0.00 47 1011.9
20260504192518 23 301 1.6 4.8 0.00 0.00 0.00 48 1012.1
20260504191518 23 169 1.6 8.0 0.00 0.00 0.00 45 1012.2
20260504190558 23 339 1.6 11.3 0.00 0.00 0.00 47 1012.3
20260504185518 23 355 1.6 6.4 0.00 0.00 0.00 46 1012.5
20260504184518 22 262 1.6 6.4 0.00 0.00 0.00 49 1012.7
20260504183516 23 178 1.6 8.0 0.00 0.00 0.00 47 1012.8
20260504182515 22 319 1.6 6.4 0.00 0.00 0.00 48 1012.9
20260504181516 22 198 3.2 8.0 0.00 0.00 0.00 47 1013.1
20260504180516 22 179 1.6 6.4 0.00 0.00 0.00 45 1013.1
20260504175516 22 188 1.6 8.0 0.00 0.00 0.00 45 1013.3
20260504174516 22 285 1.6 6.4 0.00 0.00 0.00 44 1013.4
20260504173516 22 243 1.6 4.8 0.00 0.00 0.00 47 1013.6
20260504172516 22 8 1.6 6.4 0.00 0.00 0.00 46 1013.7
20260504171517 22 354 1.6 4.8 0.00 0.00 0.00 47 1013.6
20260504170517 21 339 1.6 4.8 0.00 0.00 0.00 50 1013.8
20260504150516 19 269 1.6 4.8 0.00 0.00 0.00 55 1015.0
20260504140517 17 13 0.0 3.2 0.00 0.00 0.00 48 1015.1
20260504130518 15 215 1.6 6.4 0.00 0.00 0.00 51 1015.3
20260504110517 11 9 0.0 3.2 0.00 0.00 0.00 62 1015.8
20260504100518 12 219 1.6 6.4 0.00 0.00 0.00 63 1015.9
20260504081519 12 234 0.0 3.2 0.00 0.00 0.00 64 1016.0
20260504080520 12 247 0.0 1.6 0.00 0.00 0.00 62 1016.0
20260504050517 9 297 0.0 1.6 0.00 0.00 0.00 71 1016.2
20260504045537 9 299 0.0 1.6 0.00 0.00 0.00 71 1016.2
20260504044518 9 29 0.0 1.6 0.00 0.00 0.00 70 1016.3
20260504043518 8 32 0.0 1.6 0.00 0.00 0.00 71 1016.2
20260504042518 8 343 0.0 1.6 0.00 0.00 0.00 73 1016.3
20260504041518 8 310 0.0 1.6 0.00 0.00 0.00 77 1016.3